sat.trackr.live / text

‹ back to catalog

STARLINK-35056

NORAD 66266 · 2025-247B

PAYLOAD ACTIVE UNKNOWN

§ Identity

Operator
Country
US
Launch date
2025-10-31
Launch site
AFWTR
Launch vehicle
Mass (kg)
RCS (m²)

Purposes: comms

External: N2YO · Heavens-Above · Gunter

§ Orbital elements

Epoch: 2026-09-20T13:13:15.295008Z

Period
93.85 min
Inclination
53.1600°
Eccentricity
0.0001330
Mean motion
15.34400763 rev/d
Perigee alt
461.8 km
Apogee alt
463.6 km
Semi-major
6,840.8 km
B*
5.5815e-4
RAAN
3.7920°
Arg perigee
90.0529°
Mean anomaly
270.0626°
Rev number
5,090

§ Raw data

STARLINK-350561 66266U 25247B   26263.55087147  .00018529  00000+0  55815-3 0  99932 66266  53.1600   3.7920 0001330  90.0529 270.0626 15.34400763 50906

JSON: /api/v1/satellites/66266 · /tle

For live sub-satellite position, see the globe view (requires WebGL).

§ Visibility from observer

Set your observer location to see the next 7 days of passes ≥ 10°. The values pass through the URL so the page stays shareable.

No JS? Fill the form by hand. The geolocation button needs JavaScript.